Location: Harwich
(41.7160°N, 69.9939°W)
Time: 09:36:15
(UTC+01:00)

X-37B - Pass Details

Date: 11 December 2022
Orbit: 277 x 277 km, 45.0° (Epoch: 01 November)

Event Time Altitude Azimuth Distance (km) Brightness Sun altitude
Rises 22:59:32 0° 262° (W) 1,911 5.9 -9.2°
Reaches altitude 10° 23:01:29 10° 268° (W) 1,099 4.2 -9.5°
Maximum altitude 23:03:53 51° 346° (NNW) 355 0.3 -9.9°
Enters shadow 23:05:28 18° 59° (ENE) 774 1.5 -10.2°
